Regional Weather Roundup
Issued by NWS

Home | Current Version | Previous Version | Text Only | Print | Product List | Glossary Off
Versions: 1 2 3 4 5 6 7 8 9 10 11 12 13 14 15 16 17 18 19 20 21 22 23 24 25 26 27 28 29 30 31 32 33 34 35 36 37 38 39 40 41 42 43 44 45 46 47 48 49 50

000
ASUS43 KLOT 311008
RWRIL

ILLINOIS REGIONAL WEATHER ROUNDUP
NATIONAL WEATHER SERVICE CHICAGO/ROMEOVILLE IL
500 AM CDT FRI JUL 31 2015

NOTE: "FAIR" INDICATES FEW OR NO CLOUDS BELOW 12,000 FEET WITH NO
SIGNIFICANT WEATHER AND/OR OBSTRUCTIONS TO VISIBILITY.

* THESE STATIONS ARE NOT UNDER NWS QUALITY CONTROL. THEY ALSO MAY NOT
  REPORT WEATHER SUCH AS PRECIPITATION OR FOG.

ILZ001-002-007-009-015-016-024-311100-
NORTHWEST ILLINOIS

CITY           SKY/WX    TMP DP  RH WIND       PRES   REMARKS
MOLINE         CLEAR     66  63  90 SW5       30.06F
STERLING*      CLEAR     64  63  94 CALM      30.02F
SAVANNA*       CLEAR     66  64  90 SE5       30.04S
$$

ILZ003-004-008-010-011-017-018-311100-
NORTH CENTRAL ILLINOIS

CITY           SKY/WX    TMP DP  RH WIND       PRES   REMARKS
ROCKFORD       PTCLDY    62  58  86 S7        30.04F
FREEPORT*      CLEAR     65  62  88 SW10      30.04F
ROCHELLE*      PTCLDY    58  57  98 CALM      30.05F
DE KALB*       CLEAR     66  60  83 W8        30.05S
PERU*          CLEAR     66  63  91 W7        30.06F
$$

ILZ005-006-012>014-019>023-311100-
NORTHEAST ILLINOIS

CITY           SKY/WX    TMP DP  RH WIND       PRES   REMARKS
CHICAGO-OHARE  CLEAR     67  58  72 W7        30.01F
CHICAGO-MIDWAY CLEAR     72  57  59 W5        30.02F
AURORA         CLEAR     61  57  87 CALM      30.04F
LANSING*       CLEAR     62  59  90 SW3       30.03F
JOLIET*        CLEAR     62  62  98 CALM      30.04F
WAUKEGAN       CLEAR     67  57  70 SW3       30.00F
DUPAGE AIRPORT CLEAR     63  57  81 CALM      30.03F
KANKAKEE*      CLEAR     64  63  97 W3        30.05F
WHEELING       CLEAR     70  57  63 CALM      30.03S
MORRIS*        CLEAR     63  61  93 W3        30.03F
ROMEOVILLE*    CLEAR     62  58  88 SW5       30.04S
NORTHERLY ISL    N/A     73  57  57 W7          N/A
$$

LMZ740>746-311100-
SOUTHERN LAKE MICHIGAN

STATION/POSITION SKY/WX   TEMP    WIND        PRES    VSBY  WAVE
                          AIR SEA DIR/SP/G                  HT/PER
                          (F)     (DEG/KT/KT) (MB)    (MI)  (FT/S)
HARRISON CRIB              74     270/ 13/ 15   N/A
BURNHAM HARBOR             74     280/  6/  8   N/A
CALUMET HARBOR             72     260/  2/  4   N/A
BURNS HARBOR               74     240/  8/ 10 1016.9F
MICHIGAN CITY              74     230/ 11/ 12   N/A
MICHIGAN CITY 6N           74 73  280/  8/ 12   N/A           2/ 4
ST. JOSEPH                 74 74  310/ 12/ 14   N/A           2/ 3
$$

ILZ025>027-034>036-040-047-049-050-058-095>099-311100-
WEST-CENTRAL ILLINOIS

CITY           SKY/WX    TMP DP  RH WIND       PRES   REMARKS
QUINCY         CLEAR     68  64  87 W5        30.12S
GALESBURG*     CLEAR     64  63  96 CALM      30.09F
MACOMB*        CLEAR     67  65  93 W6        30.12S
JACKSONVILLE*  CLEAR     68  65  90 W5        30.10S
PITTSFIELD*    PTCLDY    70  64  79 W3        30.12F
$$

ILZ028>032-037-038-041>044-048-051>054-059>061-311100-
CENTRAL ILLINOIS

CITY           SKY/WX    TMP DP  RH WIND       PRES   REMARKS
PONTIAC        CLEAR     65  64  96 W3        30.07F
BLOOMINGTON    CLEAR     69  65  87 W8        30.09F
DECATUR        CLEAR     72  64  76 NW8       30.08F
PEORIA         CLEAR     70  62  76 W5        30.08F
LACON*         CLEAR     67  64  91 CALM      30.06S
LINCOLN*       CLEAR     71  65  83 W3        30.08F
SPRINGFIELD    CLEAR     64  62  93 W3        30.09F
TAYLORVILLE    CLEAR     63  63 100 CALM      30.09S
$$

ILZ033-039-045-046-055>057-062-063-311100-
EAST-CENTRAL ILLINOIS

CITY           SKY/WX    TMP DP  RH WIND       PRES   REMARKS
CHAMPAIGN      CLEAR     62  60  93 CALM      30.08F
DANVILLE*      CLEAR     65  64  96 W6        30.05S
RANTOUL*       CLEAR     65  64  96 W6        30.07F
MATTOON        CLEAR     65  61  87 NW6       30.07F
PARIS*         CLEAR     64  63  97 NW3       30.08S
$$

ILZ079-100>102-311100-
SOUTHWEST ILLINOIS

CITY           SKY/WX    TMP DP  RH WIND       PRES   REMARKS
ALTON          CLEAR     64  62  93 W3        30.11S
BELLEVILLE     CLEAR     68  67  95 NW7       30.09S
CAHOKIA*       CLEAR     71  65  81 SW5       30.11R
SPARTA*        CLEAR     69  65  89 W6        30.12R
$$

ILZ064>066-069>071-074>076-080>082-084>086-088>090-092>094-311100-
SOUTH-CENTRAL ILLINOIS

CITY           SKY/WX    TMP DP  RH WIND       PRES   REMARKS
CARBONDALE     CLEAR     68  66  93 CALM      30.10R
CAIRO*         CLEAR     67  65  94 W5        30.09S
EFFINGHAM*     CLEAR     67  62  83 W5        30.09S
MARION         CLEAR     70  66  88 CALM      30.10S
MT. VERNON     CLEAR     64  61  88 CALM      30.09S
CENTRALIA*     CLEAR     69  63  79 NW5       30.10R
SALEM*         CLEAR     67  64  89 CALM      30.10R
METROPOLIS*    CLEAR     65  65 100 CALM      30.09S
$$

ILZ067-068-072-073-078-083-087-091-311100-
SOUTHEAST ILLINOIS

CITY           SKY/WX    TMP DP  RH WIND       PRES   REMARKS
LAWRENCEVILLE  CLEAR     67  64  90 NW6       30.07S
FLORA*         CLEAR     69  64  84 NW6       30.08S
FAIRFIELD*     CLEAR     70  64  80 NW3       30.07S
HARRISBURG*    CLEAR     65  65 100 CALM      30.09S
ROBINSON*      CLEAR     63  62  96 CALM      30.07S
CARMI*         CLEAR     65  59  80 CALM      30.07S
$$

ABBREVIATIONS USED IN REMARKS
   TC - TEMPERATURE IN CELSIUS
  WCI - WIND CHILL INDEX
   HX - HEAT INDEX
  VSB - VISIBILITY
$$



USA.gov is the U.S. government's official web portal to all federal, state and local government web resources and services.